Ping Pong Board
บอร์ด: คนไทยเก่งปิงปอง
บอร์ด: การแข่งขันทั่วไทย
บอร์ด: พูดคุยทั่วไป-สินค้ามือ 2
บอร์ด: สินค้ามือสอง On FB
บอร์ด: แปลงสินทรัพย์เป็นทุน
บอร์ด: ขายสินค้าใหม่ มือ 1
บอร์ด: รีวิวอุปกรณ์
บอร์ด : รีวิวอุปกรณ์ On FB
บอร์ด: เทคนิคการเล่นปิงปอง
บอร์ด: การเมืองเรื่องปิงปอง
บอร์ด: บริจาคอุปกรณ์เหลือใช้
บอร์ด: ปรึกษาอาการบาดเจ็บ
บอร์ด: ปิงปองทุกจังหวัด
บอร์ด: ชมรมคนเล่นยางเม็ด
บอร์ด: จับแบบไม้จีน ไม้ญี่ปุ่น
บอร์ด: สนทนาภาษาปิงปอง
บอร์ด: นัดกันไปเรียน ไปเล่น
บอร์ด: Chat Online
บอร์ด: เล่นเกมส์ปิงปอง
บอร์ด: เกมส์ออนไลน์
สำหรับสมาชิก
นามปากกา
รหัสผ่าน
ลืมรหัสผ่าน
สมัครสมาชิกใช้งาน
กระทู้โดนใจชาวปิงปอง
สถานที่รับสอนปิงปอง
บอร์ดซื้อขายสินค้ามือสอง และพูดคุยแลกเปลี่ยนความคิดเห็นกัน
ตั้งกระทู้-เฉพาะกีฬาปิงปอง
ค้นหาข้อมูล :
ค้นหาจาก :
@เรื่อง.........FromAnswer-ReaderLast Answer
ไปดู math ล่าสุดของน้อง zhang กับ muzutani Jun กันครับ (ขนลุกจริงๆ) พรพจน์14/142114/11/2553 14:53:05
ลดล้างสต๊อก2คู่สุดท้ายโปรโมชั่นรองเท้า mizuno เบอร์40,43คู่ละ 999 บาทเท่านั้น มีจำนวนจำกัด (14พ.ย) สรยุทธ2/90514/11/2553 14:48:49
ขายเครื่องยิงลูกปิงปอง newgy 2040 17,000บ. ขลุ่ยฝรั่ง6/165814/11/2553 14:41:40
เเก้ไข การประมูลไม้darker 7P-2A.7t พร้อมยางyasaka mark v ดำ-เเดงครับ tonado0/64014/11/2553 14:23:57
ไม้ Sanwei A5 (โครงสร้างเดียวกับ DHS HK) มีจำหน่ายที่ Pingpong Inter แล้วครับ Pimple Lover0/106414/11/2553 8:58:54
ตั้งรับไม้หน่อยครับ chat vios3/74614/11/2553 7:46:04
ทำไมวันทีในกระทู้ "แจ้งปิดกระทู้" มันถึงเป็นอย่างนี้ครับ hs9eku0/62214/11/2553 0:49:19
ขายBRYCE-FX 700 education5/99113/11/2553 23:22:39
ขายยกชุด ไม้4อัน ยาง4แผ่น ราคา รวม 6000 aris6/129113/11/2553 23:19:07
ขายยางเม็ดสั้น TANGO ของ JOOLA ราคาตามสภาพ aris6/80913/11/2553 23:17:11
ขายอีกอนน ไม้+ยาง chat vios3/98213/11/2553 22:25:47
อยู่แถวคลองถมมีที่ตีที่ไหนบ้างมั๊ยครับ เอ็ม6/99313/11/2553 21:57:26
รีวีว timoboll t5000 กันหน่อยครับ กาเสียม2/83513/11/2553 21:34:56
นักปิงปองทุกๆคนคับใครไปดูConcert Bodyslam วันที่27 นี้บ้าง Phumphitak0/61513/11/2553 21:15:12
ถามหน่อยครับ bbbsw3/71113/11/2553 21:12:55
เพื่อฝากขายไม้ Gergely21 ตูดผีเสื้อมี code ครับ พิเรน19/113913/11/2553 19:36:35
ถึง Nai1980 เรื่องแลกไม้กัน จากหมอณรงค์ นพ. ณรงค์7/96613/11/2553 19:19:35
ยาง Gambler มีจำหน่ายที่ร้านปิงปองอินเตอร์แล้วครับ Pimple Lover0/68813/11/2553 19:17:58
TG05 สีแดง 99% decup20/143513/11/2553 14:28:47
สอบถามที่เล่นปิงปองฝั่งธน edward115/129013/11/2553 11:48:34
อยากรู้ว่าการถ่ายทอดสดกวงโจวเกมส์ freedomsky2/121213/11/2553 11:12:35
ปิงปองเทรนนี่งพระรามสาม เปิดรับสมัคร เเข่งปิงปอง วันที่ 14 พฤสจิกายน 2553 กลางห้าง) panther43/224013/11/2553 11:02:55
ช่วยแนะนำยางนิ่มๆ เบาๆไว้แบ็คให้ทีครับ clound24/336913/11/2553 10:32:36
ขายยาง ดำ 1 แผ่น+ แดง 2 แผ่น(เหมา 850 บาท) Nai198012/99113/11/2553 10:25:42
อีก 40นาที ที่ประเทศจีนจะเป็นเวลา10.00น.ใครพอทราบบ้างว่า ปิงปองหญิงทีมชาติไทย มีถ่ายทอดสดไหมครับ? secret0/67913/11/2553 8:20:38
หาร้านรับซ่อมไม้ปิงปองคับแนะนําทีคับ ฟิวคับ0/76513/11/2553 7:34:29
Deng Yaping , ตำนานปิงปองจีน ได้รับเกียรติให้เป็นหนึ่งในผู้ถือคบเพลิงเอเชี่ยนเกมส์ครั้งนี้ครับ... Pimple Lover3/106913/11/2553 7:27:07
อยากทราบข้อมูลใครรู้ช่วยหน่อย chat vios4/79713/11/2553 6:20:56
ใครเคยเห็นไม้Butterfly Power-3 บ้างคับ อยากทราบข้อมูลมากๆคับ gtgt0/77413/11/2553 3:27:56
มีเม็ดDR.supperblockรุ่นแรก education5/86613/11/2553 0:22:44
ขายยางT05 ดำ-แดง, VEGA EURO แดง2.0และ... bigben25/148512/11/2553 23:33:53
คุณเอ๋ BL ด้ามตรง0/82112/11/2553 23:33:16
ขอขายหน่อยนะครับ แพ้แล้วพาล0/73112/11/2553 23:02:30
หาซื้อไม้Sadiusมือ2รุ่น 1-3 ป้ายสั้น-ยาว มีงบด้านในครับ ฟิวคับ12/102712/11/2553 22:56:38
เชิญชม สุพรรณบุรีเกมส์เสาร-อาทิตย์นี้ประชาชนทั่วไป sasa2/73312/11/2553 22:06:13
โชร์เสื้อผ้าสวยๆ mono45/153412/11/2553 22:03:33
ใคร ศิษย์ เก่า โรงเรียน จิตรดา มั้ง คับ druminw2/103812/11/2553 21:17:29
ด้าม ST กับ FL กาเสียม0/84812/11/2553 20:53:25
คุณคิดยังไงกับคนที่ชอบซื้อสินค้าหนีภาษี เป้ บางกรวย13/231312/11/2553 15:44:16
[b] ขาย [/b] TIMOBOLL ALC(ST) [b] มือ2_ตี2วัน.หรือแลกก็ได้ครับ ขอST [/b] Fighter21/116512/11/2553 15:31:33
ขายทั้งชุด ไม้ + ยาง ราคา 1,300 บาท สภาพ 90% 14144/104312/11/2553 15:22:22
ต้องการแลกไม้ครับ เสนอมาได้เลยครับ Zigzag11/83612/11/2553 15:18:53
ไม้เปล่าคาร์บอน DONIC WALDNER MASTER CARBON ขายราคา 1,500 บาท ชมภาพไม้ก่อนครับ 14144/107912/11/2553 14:03:45
การสมัครชิงแชมป์ประเทศไทยทางFAX เงาปิงปอง1/77712/11/2553 11:51:14
**แก้ไขภาพคับ ขาย T25 สีดำ 700 บาท สภาพดีมากคับ interfear11/95712/11/2553 10:03:52
ขาย BUTTERFLY GERGELY - (ตูดผีเสื้อ) satanapat_amp13/128412/11/2553 9:43:01
ต้องการซื้อไม้ปิงปอง Sardius คร้าบด้านในครับ ฟิวคับ30/189412/11/2553 8:30:31
ขายไม้ TSP ราค1600 ลดได้นะ education7/98812/11/2553 7:05:35
รับ Optimum mp สี ดำแดง ฟองน้ำ max มือ1 อย่างละ1แผ่นครับ บ้าพลัง4/78512/11/2553 2:20:08
ขายไม้ Photino พร้อมยาง ดร็อกบา12/143212/11/2553 0:11:59
รับยางTG05หรือ05FX สภาพดีคับ ติดไม้sadiusคับ AU_LONG1/72811/11/2553 23:20:51
การเสริฟ blaxx9/123011/11/2553 22:51:36
ต้องการ Timoboll w7 / ALC ST Hinoki16/109511/11/2553 22:37:49
ขายยางTibhar Grip-S สีดำ สถาพตามรูป หรือ แลก ยางยี่ห้อ Air Illumina มือ2 ครับ secret5/96111/11/2553 22:33:41
สอบถาม hexer duro interfear0/81511/11/2553 21:18:55
ถึง คุณ Nai1980 ครับ DoMiTa4011/105811/11/2553 20:37:47
Donic Big Slam F3 ดำ แดง interfear6/98311/11/2553 20:37:38
โปรแกรมการแข่งขันปิงปอง Burapha Open ครั้งที่ 3 ม.บูรพา จ.ชลบุรี : 13-14 พ.ย. 53 friendship7291/75411/11/2553 20:00:51
ขายไม้ JOOLA ROSSI FORCE ครับ มัจฉานุ35/253411/11/2553 18:57:15
JUN..ครับ อ๊อดบางกรวย17/127911/11/2553 18:46:28
ถามเรื่องการเคลือบด้ามด้วยวานิช และแลกเกอร์ครับ clound5/146111/11/2553 17:56:13
sardiusรุ่น3(ป้ายจม) อ๊อดบางกรวย22/138911/11/2553 17:02:20
ขายยาง zap แดง กับ hidden dragon ถูกๆครับ พรพจน์13/116011/11/2553 14:20:08
------------ขายไม้ JOOLA---------------- jabJAB40/194011/11/2553 14:12:57
โปรแกรม TMB ไม่ทราบว่าออกหรือยัง.. Hinoki1/69011/11/2553 14:08:35
Schlager ตูดเงิน 95% +1500 อยากแลก Sardius รุ่นเก่ามากๆ wat CTH25/148411/11/2553 13:26:05
ขายไม้ NITTAKU LUDEAK POWER ST jabJAB18/116211/11/2553 12:56:50
โปรแกรมการแข่งขันเทเบิลเทนนิสบูรพาโอเพ่น ครั้งที่ 3 วันที่ 13 - 14 พ.ย.53 pocker9/104311/11/2553 12:51:50
ภาพวันเกิด คุณเม็ดซ่า คับ Fossil7/82611/11/2553 12:24:54
การแข่งขันเทเบิลเทนนิส Naresuan University Open ครั้งที่ 2 จ.พิษณุโลก แข่งขันวันที่ 8-9 มกราคม 2554 admin0/134411/11/2553 11:32:10
ขาย TENERGY 05 ดำ 2.1 & NITTAKU H 3 NEO แดง 2.15 & DHS H 3 NEO แดง 2,2 bueipong23/151211/11/2553 10:48:52
ขายยางมือสาม comeback3/84811/11/2553 8:53:39
[font:blue] ขายยางด่วน ราคากันเอง... [/font] GAPPY28/175211/11/2553 1:24:42
มี Amutart FL แลกกับอะไรดีครับ mangmum41/147610/11/2553 23:51:10
ถึง หลังม่านพิรุณ ครับ Arts4/85010/11/2553 22:13:09
ขายยางTG05(สีดำ15.5x14.9)_850+ems และ TG05FX(สีแดง15.5x14.9)_750+ems Fighter15/101610/11/2553 21:12:01
ช่วยแนะนำด่วน ปัญจพล8/75110/11/2553 20:43:20
ขายไม้ Nittaku power jabJAB5/96610/11/2553 17:30:51
ขายกางเกงวอม Mizuno ไซต์M ผู้หญิง alldayallnine8/150510/11/2553 17:09:00
ขาย GaGry ตูดผีเสื้อ มีบาร์โค๊ต nu_mHO13/120210/11/2553 15:15:55
ขาย Sadius จีน Sanwei ด้าม FL mangmum6/94010/11/2553 15:11:23
ขายไม้ 2 อัน druminw15/120910/11/2553 15:10:20
ขายยาง DONIC ACUDA S1 สีแดง สภาพสวย ไม่แพง Timo Back18/142710/11/2553 15:03:10
คำถามก่อนนอน.......อันนี้ไม้อะไรครับ TKMP12/145510/11/2553 14:28:46
น่าสงสารมากๆ สิรานุวรรตน์12/149010/11/2553 13:15:48
ตั้งรับ DONIC WALNER CARBON SENSO ครับผม เอกหนองบัว0/63710/11/2553 12:06:19
ช่วยแนะนำยางเม็ดยาวหน่อยค่ะ wondergirl7/92610/11/2553 11:52:24
ที่ตีปิงปองสำหรับคนทำงาน ไม่เกิน 800 16/224510/11/2553 11:24:32
ไม้เก่าสภาพตามรูป อยากแลก || ขาย ขอสิทธิ์แลกก่อน Nukung20/137110/11/2553 10:51:03
ประมุลเล่นๆ รองเท้ามิซูโน่ ใส่วิ่ง ใส่ตี เบอร์40 mono47/168310/11/2553 10:48:49
ขายไม้ carbon ด้านเดียวครับ เม็ดแดง7/99710/11/2553 9:42:47
รับ TG05 education1/72110/11/2553 9:21:59
สินค้าฝากขาย === OH_CNX5/132110/11/2553 9:06:28
ขายยาง BTY Bryce FX สีดำ ฟองน้ำ 2.1 ม.ม. (ยางใหม่) หมิน.9/130410/11/2553 8:47:56
ผลการคัดเลือกกีฬาเยาวชนแห่งชาติ ภาค1 ที่ จ.ปทุมธานี daddy1/96210/11/2553 5:06:44
รับซื้อไม้Arylate-Carbon สภาพดี ราคาไม่เว่อร์คับ AU_LONG4/95810/11/2553 2:12:52
ช่วยแนะนำที่ซื้อยาง+ไม้ ที่ประเทศจีน เซิ่นเจิ้นหน่อยครับ ju aun2/89210/11/2553 1:44:32
ขายไม้ Andro Kinetic Carbon Off- ด้าม AN ครับ mangmum30/102310/11/2553 1:30:25
รับยางเม็ดยาวDR.และhellmark ทุกรายการไม่จำกัดจำนวน สรยุทธ16/95610/11/2553 1:25:39
ขายไม้เบาสุดๆ TSP-versal education0/7999/11/2553 23:46:50
รับจองไม้ Amultart ST note8/14499/11/2553 22:29:04
ขายยาง HALL MARK green power ดำ-แดง nuishiki13/12679/11/2553 22:13:52
รับซื้อเสื้อlining ขอมือ1นะครับ ทุกสีขอเบอร์ L/XL KissSeeD4/9599/11/2553 21:48:17
ลดราคาล้างสต๊อคสุดๆรองเท้า li-ning เทพๆ ราคาเพียง1500บาทเท่านั้น มีจำนวนจำกัด (2พ.ย) สรยุทธ3/7699/11/2553 21:21:02
ลดล้างสต๊อก2คู่สุดท้ายโปรโมชั่นรองเท้า mizuno เบอร์40,43คู่ละ 999 บาทเท่านั้น มีจำนวนจำกัด (9พ.ย) สรยุทธ2/8639/11/2553 21:20:57
รับTG05/boot tc/calibra ซาว/magna tc ll gopgop5/8679/11/2553 21:17:20
ขาย IOLITE-FL มีโค๊ด+ตูดดำ 3,100+EMSอีกรอบครับ(555+ไม่มีใครแลก) Nai198012/11099/11/2553 20:13:16
มีไม้มาขาย2ไม้ราคาสภาพตามรูป hakung11117/14909/11/2553 19:59:45
ขายยาง เรียบ ราคากันเอง aris10/11159/11/2553 19:49:23
โควต้านักกีฬาสจล. Master7/16699/11/2553 17:54:06
ถึงคุณ sasa เพอสัน2/8919/11/2553 17:33:06
!!! ขายไม้และยางยกชุดครับ !!! Zigzag7/12669/11/2553 16:39:12
แจ้งเรื่องบริจาคช่วยน้ำท่วมครับ เงินของทุกม่านที่ช่วยซื้อ+ผมสมทบทุน mono3/7099/11/2553 14:32:35
-ขอโทษครับที่ผิดสัญญา ลงไม่ทันพาเด็กไปแข่งมาครับเอามาโชว์และกันพรุ่งนี้ลง 2รอบ ช่วง 10.00 กับ 21.00น. mono97/21729/11/2553 14:03:42
ขาย stiga hypertech CR 35/45 ด้ามตรง ใหม่ (ยังไม่แกะกล่อง) ราคาพิเศษ tee-noy22/25709/11/2553 12:56:49
DONIC Waldner Senso Carbon ขอแลก Timo boll spirit kimminsu7/18819/11/2553 12:43:07
ขาย-แลกไม้ -EvoRu2-10/10129/11/2553 10:40:19
รับไม้ Stiga Hypertech ด่วนคับ natha0/6469/11/2553 9:07:50
ตีไม่ได้ แต่ไม้สวยครับ [b] (อยากแลก /ขายดีครับทุกท่าน ) [/b] Nai198024/14589/11/2553 8:31:32
ขายไม้+ยาง เพื่อสมทบทุน chat vios13/10759/11/2553 7:57:00
ถึงคุณZardiuz Topboy0/6179/11/2553 7:37:54
รับยาง baracuda สีดำครับ p_pig4/8219/11/2553 0:12:02
รับไม้ Matsushita pro model ตูดดำ-เงิน สภาพสวยๆครับ mintwing74/7988/11/2553 22:01:14
ขายไม้ NITTAKU RUNLOX - 5 (ST)ครับ packkie5615/21438/11/2553 21:22:36
ถึง คุณ FAT mintwing75/7908/11/2553 19:57:47
รับ timoboll T5000 หรือ sardius สภาพ 80% ขึ้นครับ กาเสียม0/6868/11/2553 19:00:04
T25 ดำ สภาพดี หดน้อยมากคับ interfear2/8348/11/2553 17:12:02
หาที่เล่นปิงปองที่ประจวบคีรีขันธ์ หมิน.0/8198/11/2553 17:00:06
ขายยาง TG 05 แดงหน้าไม้ Amultart Mozlilez21/13358/11/2553 16:45:27
รับยาง ALMANA SOUND damdam3/8458/11/2553 15:53:11
ขายไม้มือสองยางมือสองและยางมือหนึ่งอุปกรณ์อีกมากมาย/รับซ่อมไม้ปิงปอง katang14/11868/11/2553 13:47:15
ประมูลไม้ขอรับ สนุกๆ คลายเครียด พรพจน์52/16738/11/2553 13:46:35
ถึง Admin ครับ Zigzag3/10158/11/2553 13:39:16
ถึงคุณ CK-1 junjun20/11038/11/2553 13:33:02
ขาย..GERGELY 21 ด้าม ST คับ Allround Classic 3/10798/11/2553 12:00:26
ขายยางDONIC COPPA_X1(2.0สีแดง)และยางDONIC ACUDA S1(2.0ดำ) Fighter9/12358/11/2553 11:50:56
เปิดประมูลยางTenegy05 nuinicolas8/12668/11/2553 11:42:33
เปิดประมูลไม้ Keyshot Light - ST หวาน-ขม5/9608/11/2553 11:24:22
ใครมียางมาแลกกันได้นะครับ TIBHAR SUPER DEFENSE 40 Ku I"Ho12/22048/11/2553 11:09:45
ขายไม้เเพนเตอร์ รุ่นเก่าครับ ฝากถึงคุณ tonado katang0/8598/11/2553 10:34:45
เปิดขายไม้ใหม่พร้อมกล่องใส่สมบูรณ์ THAT4/15798/11/2553 10:20:10
สิ่งที่เวปมาสเตอร์ออกกฏมาควบคุมการใช้งาน เป็นสิ่งที่ถูกต้องแล้ว นักปิงปองเมืองกรุง8/11668/11/2553 8:58:14
ลดราคาล้างสต๊อคสุดๆรองเท้า li-ning เทพๆ ราคาเพียง1500บาทเท่านั้น มีจำนวนจำกัด (2พ.ย) สรยุทธ4/9438/11/2553 4:43:13
เสื้อบัตสวยๆครับ (ลีอตช่วยนำท่วมครับ ขายตัวละ280 เอาไปบริจาคตัวละ20) mono32/12008/11/2553 4:36:44
ขายยาง 4 แผ่น 500 บาท รวม ems toono9/10858/11/2553 0:53:48
ขายยาง AIR กับ ANDRO ครับ KUNSTLER19/13658/11/2553 0:44:40
ไม้อันนี้มันจะขายได้เท่าไหร่หรอครับ Hayabusa99835/16388/11/2553 0:42:21
รับซื้อ ไม้ ตามนี้ครับ alabaster14/10897/11/2553 23:38:32
ประชาสัมพันธ์การเเข่งขันกีฬาระหว่างคณะ 7-9 พ.ย 2553 ณ ชมรมปิงปอง ม.ขอนแก่น gtgt0/6307/11/2553 23:11:16
ขายเสื้อแจ๊คเกตสวยNIPPON JANPAN juneonion0818/11087/11/2553 22:02:51
ขายไม้ butterfly glass fiber st tee-noy16/15397/11/2553 21:00:54
ตามหา sardius มือสองครับ รับทุกรุ่น ทุกสภาพครับ ต้องการแบบเอามาใช้งาน ไม่เก็บครับ tee-noy28/20247/11/2553 20:59:06
ขายไม้ yasaka รุ่นเก่า tee-noy11/14417/11/2553 20:57:00
ไม้นี้แลกอะไรได้บ้างครับ( ช่วยผมหน่อย) Nai198039/13687/11/2553 16:51:27
ดูยางTibhar andro อยู่ยางเก่าใช้มา2ปีแล้ว แนะนำทีครับ อ้วนปิงปอง2/11107/11/2553 16:44:34
รับยาง..Bryce-speed-Fxสีแดงและ..อื่นๆลองเสมอราคาและรูป Toppycandy4/7547/11/2553 16:41:15
((ขาย))เสื้อกีฬาViCtorมือ2ราคาถูก สภาพดีด้านในค่ะ ใบบุญ10/15067/11/2553 15:49:21
ขอความเห็นใจกผู้มี GerGely มือสอง !! FreeHand61/26317/11/2553 14:21:05
ขายกางเกงวอร์มรับลมหนาว สภาพเทพๆ Siamsato5/17937/11/2553 13:51:26
ขออนุญาตขายไม้ซาเดียส(จีน) CliiperCR และยาง Juic มือ2ทั้งหมดถูก เหยี่ยว22/20697/11/2553 13:32:27
มี timo boll spirit fl อยากแลก คิงคองลุย speacial fl ครับ costheta41/16327/11/2553 13:10:20
จองก่อนได้ก่อนนะครับ แพ้แล้วพาล1/8577/11/2553 10:12:54
ถึงjuneonion081 อิอิอิ2/8067/11/2553 10:09:12
[ของล๊อตใหม่] เสื้อปิงปอง Mizuno , Asics , Nittaku และ Butterfly ของแท้จาก Japan สภาพดีครับ Jessy93/32207/11/2553 2:42:17
ไม่ค่อยได้เล่นเร้ย..ขายยางเม็ดด็อกเตอร์และอยางเรียบสภาพดีหลายรายการ thechang3/8867/11/2553 2:24:10
ขออนุญาตของกระเป๋า mizno ของแท้ 100% ครับ non77993/9026/11/2553 22:32:53
เปิดประมูล Ma Lin Soft Carbonปิดประมุล 31/10/53 24.00 น แพ้แล้วพาล22/14496/11/2553 22:22:46
รับไม้ kong linghui speacial คร๊าบบบ costheta6/7926/11/2553 20:49:53
ขายกระเป๋า MIZUNO มี 2 ใบ คับ หนุกหนาน17/21106/11/2553 18:51:39
นาทีทอง อิอิอิ9/14186/11/2553 18:47:03
ขายยาง1แผ่นครับ แพ้แล้วพาล3/10316/11/2553 18:43:36
เสื้อ Butterfly นำเสนอ M-UT4/9706/11/2553 17:56:24
ประมุลอีกแล้ว เสื้อมิซุโน่ สวยๆสุดๆ ปิด วัน อาทิตที่3 ตค. ครับ mono13/14416/11/2553 17:54:43
รับยางแผ่นสี่เหลี่ยม TG 05 หรือ 64 หนา 2.1 สีแดง ค่ะ mut 25242/7816/11/2553 17:20:01
รับยางDONIC -EvoRu2-0/6166/11/2553 16:41:38
ขายไม้..GERGELY 21... ST ค่ะ สภาพดีค่ะด้านใน ใบบุญ12/11816/11/2553 14:08:03
ไปดูน้อง zhang ปราบ พี่ โจ กับ พี่ อ๊อด ใน 2010 word ครับ กันดีกว่าครับ พรพจน์0/10016/11/2553 12:29:43
ขายไม้ PRIMORAC CARBON FL ถูกครับ SS DeaTHLiNE722/14426/11/2553 12:08:02
ขายครับ sardius เมืองจีน (sanwei) ของดี ราคาถูก สั่งทำเฉพาะ พรพจน์10/14776/11/2553 11:35:50
ถึงคุณ คนตรัง chat vios2/8576/11/2553 10:38:21
รับยาง baracuda-max tg05-fx -max pryde40 chaly6/8626/11/2553 2:59:28
อยากได้ใม้ครับ Hayabusa9984/7886/11/2553 0:37:29
ลดราคาล้างสต๊อคสุดๆรองเท้า mizuno 999 บาทเท่านั้น มีจำนวนจำกัด (2พ.ย) สรยุทธ7/14715/11/2553 23:42:11
ขายไม้ DONIC OPTIMUM + ยาง SRIVER , DONIC WALDER DICON , DONIC WALDNER MASTER CARBON 14144/16275/11/2553 23:19:21
มีใครขายเครื่อง JOOLA ROBOT BUDDY ต่อบ้างคับ momokung3/9855/11/2553 22:51:41
ถึงอา เพอสัน bbbsw2/7545/11/2553 22:33:35
ข้อมูลสำหรับผู้สนใจไม้แบบต่างๆ ไม่ลองไม่รู้ เพอสัน11/17635/11/2553 22:26:30
ขายซองไม้ BTY Logo Mesh Case ครับ peterpan0935/8885/11/2553 22:20:25
กำเนิดใหม่ KAZAN......... TKMP15/18055/11/2553 21:06:24
ขอเป็นกำลังใจให้กับผู้ที่ประสบภัยน้ำท่วมและวาตภัย ครับ คลีนิคปิงปอง5/7575/11/2553 21:04:04
ขายไม้ปิงปอง มือสอง เพอสัน15/22065/11/2553 20:22:21
รับยาง Andro Roxon 450 สีแดง ครับ Zigzag1/7775/11/2553 20:13:33
ขายยาง XIOM OMEGA III PRO MAX สีดำ 400 + EMS sarachai21/10325/11/2553 17:37:27
Newgy Robopong 2050 gopgop2/10585/11/2553 16:07:02
รับ ไม้ ซาเดียส Magic00511/9285/11/2553 15:23:46
ถึงพี่ เอ๋BL chaly1/8165/11/2553 14:17:28
(((ขาย))) รองเท้ามือ2และเสื้อ[มือ2ของผมเองครับ ไม่ใช่มือ 3 หรือ 4 ครับ] nobutakajung44/75635/11/2553 14:13:40
ถึงคุณ nuishiki mangmum0/6205/11/2553 13:46:23
ขายยาง DHS Huricane 3 NEO สีดำ shadowmoon3/10325/11/2553 12:31:56
<< ขาย >> เสื้อ Mizuno + กางเกงปิงปอง ของแท้ Japan จัดส่งฟรีครับ Jessy33/21725/11/2553 12:10:44
Page :  1  2  3  4  5  6  7  8  9  10  11  12  13  14  15  16  17  18  19  20  21  22  23  24  25  26  27  28  29  30  31  32  33  34  35  36  37  38  39  40  41  42  43  44  45  46  47  48  49  50  51  52  53  54  55  56  57  58  59  60  61  62  63  64  65  66  67  68  69  70  71  72  73  74  75  76  77  78  79  80  81  82  83  84  85  86  87  88  89  90  91  92  93  94  95  96  97  98  99  100  101  102  103  104  105  106  107  108  109  110  111  112  113  114  115  116  117  118  119  120  121  122  123  124  125  126  127  128  129  130  131  132  133  134  135  136  137  138  139  140  141  142  143  144  145  146  147  148  149  150  151  152  153  154  155  156  157  158  159  160  161  162  163  164  165  166  167  168  169  170  171  172  173  174  175  176  177  178  179  180  181  182  183  184  185  186  187  188  189  190  191  192  193  194  195  196  197  198  199  200  201 
[ First ] [<< back ] [ next>> ] [ Last ]  
VIP SPONSOR

 

ห้ามอย่านำสินค้าหนีภาษี - สินค้าหิ้วเข้ามาเอง - สินค้าปลอม มาจำหน่ายในเวปนี้
 
© 2020 All Rights Reserved
Powered by
ThaiWebWizard.com